Date String (YYYY-MM-DD hh:mm:ss) UTC,Instrument flags,absolute air pressure of the measurement (hPa),sample flow rate (lpm),inlet stack bypass flow (lpm),air temperature of the measurement (°C),ambient temperature measured by the external sensor (°C),aerosol sample conditioner tube jacket temperature (°C),OPC LED temperature (°C),internal box temperature (°C),relative humidity of the measurement (%),span deviation,mass concentration of particles derived from Lorenz-Mie calculation of OPC scattering (μg/m³),mass concentration of particles derived from Lorenz-Mie calculation of OPC scattering (μg/m³),mass concentration of particles derived from Lorenz-Mie calculation of OPC scattering (μg/m³)
DateTimeUTC,F1_M11,P_M11,Q1_M11,Q2_M11,T1_M11,T2_M11,T3_M11,T4_M11,T5_M11,U1_M11,ZSPAN_M11,X0_M11,X2_M11,X1_M11
2023-10-31 07:00:00,SystemResetWarning,0838.4,5.00,000.00,021.0,019.8,000.0,029.5,022.3,11.1,0000.0,0006.84,0003.77,0003.39
2023-10-31 07:01:00,SystemResetWarning,0838.4,5.00,000.00,021.0,019.8,000.0,029.5,022.3,11.1,0000.0,0006.92,0003.84,0003.45
2023-10-31 07:02:00,SystemResetWarning,0838.4,4.99,000.00,021.0,019.8,000.0,029.5,022.3,11.1,0000.0,0006.91,0003.90,0003.52
2023-10-31 07:03:00,SystemResetWarning,0838.5,5.00,000.00,021.0,019.8,000.0,029.5,022.2,11.1,0000.0,0006.88,0003.98,0003.62
2023-10-31 07:04:00,SystemResetWarning,0838.4,5.00,000.00,021.0,019.7,000.0,029.5,022.2,11.2,0000.0,0007.23,0004.07,0003.71
2023-10-31 07:05:00,SystemResetWarning,0838.4,5.00,000.00,021.0,019.7,000.0,029.4,022.2,11.3,0000.0,0007.46,0004.14,0003.83
2023-10-31 07:06:00,SystemResetWarning,0838.4,5.01,000.00,020.9,019.7,000.0,029.4,022.2,11.2,0000.0,0007.52,0004.26,0003.98
2023-10-31 07:07:00,SystemResetWarning,0838.4,5.01,000.00,020.9,019.7,000.0,029.4,022.2,11.1,0000.0,0007.53,0004.42,0004.13
2023-10-31 07:08:00,SystemResetWarning,0838.4,5.00,000.00,020.9,019.7,000.0,029.4,022.2,11.0,0000.0,0007.38,0004.57,0004.30
2023-10-31 07:09:00,SystemResetWarning,0838.5,4.99,000.00,020.9,019.7,000.0,029.4,022.2,11.1,0002.4,0007.58,0004.73,0004.46
2023-10-31 07:10:00,SystemResetWarning,0838.5,5.00,000.00,020.9,019.8,000.0,029.4,022.2,11.1,0003.6,0007.73,0004.88,0004.62
2023-10-31 07:11:00,SystemResetWarning,0838.5,5.00,000.00,020.9,019.8,000.0,029.4,022.2,11.0,0003.3,0007.88,0005.00,0004.75
2023-10-31 07:12:00,SystemResetWarning,0838.6,5.00,000.00,020.9,019.8,000.0,029.4,022.2,11.0,0002.2,0008.13,0005.23,0004.95
2023-10-31 07:13:00,SystemResetWarning,0838.6,5.00,000.00,020.9,019.8,000.0,029.4,022.3,11.0,0001.5,0008.29,0005.41,0005.17
2023-10-31 07:14:00,SystemResetWarning,0838.6,5.00,000.00,020.9,019.8,000.0,029.4,022.3,11.1,0002.2,0008.60,0005.59,0005.33
2023-10-31 07:15:00,SystemResetWarning,0838.6,5.00,000.00,020.9,019.8,000.0,029.3,022.3,11.1,0001.4,0008.75,0005.70,0005.43
2023-10-31 07:16:00,SystemResetWarning,0838.6,5.00,000.00,020.9,019.8,000.0,029.3,022.2,11.1,0001.0,0008.69,0005.79,0005.52
2023-10-31 07:17:00,SystemResetWarning,0838.6,5.00,000.00,020.9,019.9,000.0,029.3,022.2,11.1,0001.9,0008.76,0005.87,0005.59
2023-10-31 07:18:00,SystemResetWarning,0838.6,5.00,000.00,020.9,019.8,000.0,029.3,022.2,11.2,0001.8,0008.81,0005.92,0005.63
2023-10-31 07:19:00,SystemResetWarning,0838.6,5.00,000.00,020.9,019.8,000.0,029.3,022.2,11.2,0001.6,0008.78,0005.91,0005.63
2023-10-31 07:20:00,SystemResetWarning,0838.6,5.00,000.00,020.9,019.8,000.0,029.3,022.2,11.3,0001.5,0008.73,0005.88,0005.59
2023-10-31 07:21:00,SystemResetWarning,0838.6,5.00,000.00,020.8,019.8,000.0,029.3,022.1,11.3,0001.6,0008.65,0005.82,0005.52
2023-10-31 07:22:00,SystemResetWarning,0838.6,5.00,000.00,020.8,019.8,000.0,029.3,022.1,11.2,0002.6,0008.51,0005.68,0005.38
2023-10-31 07:23:00,SystemResetWarning,0838.6,5.01,000.00,020.8,019.8,000.0,029.3,022.1,11.1,0002.9,0008.26,0005.46,0005.17
2023-10-31 07:24:00,SystemResetWarning,0838.6,5.00,000.00,020.8,019.7,000.0,029.3,022.1,11.1,0002.4,0008.06,0005.24,0004.95
2023-10-31 07:25:00,SystemResetWarning,0838.6,5.00,000.00,020.8,019.7,000.0,029.3,022.1,11.2,0000.6,0007.73,0005.01,0004.73
2023-10-31 07:26:00,SystemResetWarning,0838.6,4.99,000.00,020.8,019.7,000.0,029.3,022.1,11.2,0000.0,0007.60,0004.82,0004.54
2023-10-31 07:27:00,SystemResetWarning,0838.6,5.00,000.00,020.8,019.7,000.0,029.3,022.0,11.2,0000.0,0008.05,0004.66,0004.38
2023-10-31 07:28:00,SystemResetWarning,0838.6,5.00,000.00,020.8,019.7,000.0,029.3,022.0,11.1,0000.0,0007.86,0004.46,0004.19
2023-10-31 07:29:00,SystemResetWarning,0838.6,4.99,000.00,020.7,019.7,000.0,029.2,022.0,11.1,0000.0,0007.64,0004.26,0004.00
2023-10-31 07:30:00,SystemResetWarning,0838.6,5.00,000.00,020.7,019.6,000.0,029.2,022.0,11.1,0000.0,0007.46,0004.10,0003.83
2023-10-31 07:31:00,SystemResetWarning,0838.6,5.00,000.00,020.7,019.6,000.0,029.2,022.0,11.1,0000.0,0007.98,0003.97,0003.70
2023-10-31 07:32:00,SystemResetWarning,0838.6,5.00,000.00,020.7,019.6,000.0,029.2,022.0,11.1,0000.0,0008.00,0003.85,0003.59
2023-10-31 07:33:00,SystemResetWarning,0838.6,5.00,000.00,020.7,019.6,000.0,029.2,021.9,11.2,0000.0,0007.96,0003.80,0003.54
2023-10-31 07:34:00,SystemResetWarning,0838.7,5.00,000.00,020.7,019.6,000.0,029.2,021.9,11.2,0000.0,0007.98,0003.81,0003.53
2023-10-31 07:35:00,SystemResetWarning,0838.6,5.00,000.00,020.7,019.5,000.0,029.2,021.9,11.3,0000.0,0008.01,0003.82,0003.53
2023-10-31 07:36:00,SystemResetWarning,0838.7,5.00,000.00,020.7,019.5,000.0,029.2,021.9,11.3,0000.0,0008.07,0003.85,0003.53
2023-10-31 07:37:00,SystemResetWarning,0838.7,5.00,000.00,020.6,019.5,000.0,029.2,021.9,11.3,0000.0,0008.12,0003.87,0003.53
2023-10-31 07:38:00,SystemResetWarning,0838.7,5.00,000.00,020.6,019.5,000.0,029.2,021.8,11.3,0000.0,0007.26,0003.86,0003.53
2023-10-31 07:39:00,SystemResetWarning,0838.6,5.00,000.00,020.6,019.5,000.0,029.2,021.8,11.3,0000.0,0007.33,0003.90,0003.55
2023-10-31 07:40:00,SystemResetWarning,0838.7,5.01,000.00,020.6,019.4,000.0,029.1,021.8,11.3,0000.0,0007.39,0003.94,0003.59
2023-10-31 07:41:00,SystemResetWarning,0838.7,5.00,000.00,020.6,019.4,000.0,029.1,021.8,11.4,0000.0,0007.46,0003.97,0003.61
2023-10-31 07:42:00,SystemResetWarning,0838.7,5.01,000.00,020.6,019.4,000.0,029.1,021.8,11.5,0000.0,0006.33,0003.97,0003.62
2023-10-31 07:43:00,SystemResetWarning,0838.7,5.00,000.00,020.6,019.4,000.0,029.1,021.8,11.4,0000.0,0006.05,0003.95,0003.61
2023-10-31 07:44:00,SystemResetWarning,0838.8,5.00,000.00,020.5,019.4,000.0,029.1,021.8,11.4,0000.0,0006.06,0003.95,0003.60
2023-10-31 07:45:00,SystemResetWarning,0838.7,5.00,000.00,020.5,019.4,000.0,029.1,021.8,11.4,0000.0,0006.01,0003.96,0003.61
2023-10-31 07:46:00,SystemResetWarning,0838.8,5.01,000.00,020.5,019.4,000.0,029.1,021.8,11.4,0000.0,0005.94,0003.94,0003.61
2023-10-31 07:47:00,SystemResetWarning,0838.7,5.00,000.00,020.5,019.3,000.0,029.0,021.8,11.4,0000.0,0005.83,0003.92,0003.61
2023-10-31 07:48:00,SystemResetWarning,0838.7,5.00,000.00,020.5,019.3,000.0,029.0,021.8,11.4,0000.0,0005.93,0003.92,0003.63
2023-10-31 07:49:00,SystemResetWarning,0838.8,5.00,000.00,020.6,019.3,000.0,029.0,022.1,11.4,0000.0,0006.57,0003.92,0003.65
2023-10-31 07:50:00,SystemResetWarning,0838.8,5.01,000.00,020.7,019.8,000.0,029.0,022.5,11.3,0000.0,0006.44,0003.91,0003.66
2023-10-31 07:51:00,SystemResetWarning,0838.8,5.01,000.00,020.8,020.7,000.0,029.1,022.9,11.2,0000.0,0006.51,0003.92,0003.67
2023-10-31 07:52:00,SystemResetWarning,0838.8,4.99,000.00,021.0,020.9,000.0,029.1,022.9,11.1,0000.0,0006.38,0003.91,0003.68
2023-10-31 07:53:00,SystemResetWarning,0838.8,4.99,000.00,021.0,020.8,000.0,029.1,022.8,11.1,0000.0,0006.52,0003.93,0003.70
2023-10-31 07:54:00,SystemResetWarning,0838.8,5.01,000.00,021.0,020.7,000.0,029.1,022.6,11.1,0000.0,0007.48,0003.97,0003.73
2023-10-31 07:55:00,SystemResetWarning,0838.8,5.01,000.00,021.0,020.5,000.0,029.2,022.6,11.1,0000.0,0007.50,0004.01,0003.79
2023-10-31 07:56:00,SystemResetWarning,0838.8,4.98,000.00,021.0,020.4,000.0,029.2,022.4,11.1,0000.0,0007.52,0004.04,0003.83
2023-10-31 07:57:00,SystemResetWarning,0838.8,4.99,000.00,021.0,020.3,000.0,029.2,022.4,11.1,0000.0,0007.55,0004.06,0003.86
2023-10-31 07:58:00,SystemResetWarning,0838.8,5.01,000.00,021.0,020.2,000.0,029.2,022.3,11.1,0000.0,0007.56,0004.09,0003.91
2023-10-31 07:59:00,SystemResetWarning,0838.8,5.00,000.00,020.9,020.1,000.0,029.2,022.3,11.1,0000.0,0007.62,0004.13,0003.94
